Theta_e
280 280 279 278 276 277 275 276 273 275 275 278 281 283 284 284 284 284 284 285 286 287 288 290 291 293 295 297 300 304 308 312 320 328 331 330 330 330 330 329 328 330 330 330
277 281 279 276 277 277 276 276 276 277 276 282 283 285 283 282 282 282 283 284 285 286 287 288 288 291 292 294 297 301 304 310 319 323 328 330 330 330 329 329 330 329 329 329
275 281 280 273 276 277 277 278 278 273 277 281 281 282 282 282 282 282 283 283 284 285 286 287 289 290 290 292 296 300 306 313 320 324 326 327 330 329 329 328 330 329 329 329
278 280 269 276 282 282 279 279 281 281 281 282 282 284 285 284 282 283 283 284 284 285 286 287 288 289 290 293 296 299 303 309 314 318 324 325 328 328 328 329 329 328 328 329
276 273 275 276 279 279 278 277 283 282 282 283 285 284 283 285 284 283 284 285 285 286 286 287 287 288 290 292 293 295 298 301 305 310 312 321 324 326 328 327 327 327 328 327
277 271 267 276 282 286 285 274 284 284 282 283 283 276 279 284 285 285 285 285 284 285 286 287 287 288 289 290 291 292 296 299 304 307 309 311 319 325 326 326 325 324 321 323
278 274 275 283 285 286 272 275 285 286 285 285 281 282 284 285 285 285 285 285 285 285 285 285 286 287 288 289 288 293 296 299 302 303 305 309 312 320 324 323 322 322 321 322
279 274 270 286 285 279 284 287 288 287 287 286 286 285 285 285 285 285 285 285 286 284 285 285 285 286 287 287 289 293 295 296 298 301 301 302 310 312 317 319 318 318 317 318
279 278 285 288 285 289 291 289 289 288 288 288 288 287 288 286 286 286 286 286 287 285 285 286 285 285 285 287 289 291 292 292 295 296 299 297 296 295 294 295 305 315 314 314
283 285 288 289 290 291 291 290 290 290 289 289 287 288 287 287 286 286 286 286 287 285 285 285 286 286 286 289 289 290 289 290 292 292 294 295 295 293 290 289 291 291 291 297
284 287 288 289 290 291 291 291 291 291 291 290 289 288 288 286 286 286 286 287 287 286 285 285 287 287 289 290 290 288 288 289 289 290 291 292 293 292 291 289 287 287 287 290
282 288 288 288 291 292 291 291 291 291 290 291 290 289 289 288 287 286 287 287 287 287 286 286 287 286 289 290 290 289 287 287 287 288 288 289 289 290 289 288 288 287 287 287
287 290 291 291 293 293 292 292 293 292 292 290 291 290 289 288 288 288 288 288 287 286 287 287 287 286 288 291 290 288 288 290 289 288 288 287 287 287 286 288 288 287 286 287
291 292 290 291 290 293 293 293 295 294 293 293 292 291 290 289 289 288 287 288 288 287 287 287 287 286 287 290 290 289 288 287 290 290 289 288 288 287 286 285 284 285 287 286
291 292 291 292 292 292 293 293 292 292 293 292 293 292 291 289 289 288 289 289 289 288 287 287 287 287 287 290 290 289 288 288 289 289 289 288 288 288 288 287 285 285 285 285
291 292 292 291 291 292 292 292 291 291 292 292 292 292 291 291 290 290 289 289 287 285 286 286 286 289 288 288 290 290 289 286 287 287 287 287 287 286 286 286 285 285 284 284
290 289 290 290 291 291 291 293 292 292 293 292 293 293 292 291 290 290 289 289 289 287 287 287 286 289 288 287 289 290 288 288 285 287 285 285 286 285 285 285 285 285 284 285
294 293 293 293 292 292 292 293 293 293 293 294 294 293 292 291 289 289 290 290 288 287 288 287 287 289 288 287 289 289 288 287 285 284 284 284 284 284 284 284 284 284 284 284
294 294 294 293 293 293 293 293 293 294 294 294 293 293 292 292 291 290 291 288 285 284 286 288 284 287 287 286 287 288 287 285 284 283 283 283 282 283 282 282 283 284 284 283
294 295 295 294 295 294 293 294 294 294 295 293 293 292 290 292 292 291 291 289 288 286 288 288 286 286 287 287 285 286 286 285 282 282 282 282 282 282 283 283 283 283 283 283
294 295 295 295 294 297 297 296 294 295 295 295 293 292 289 291 293 292 291 289 289 287 287 286 285 284 287 283 286 286 285 283 282 281 281 281 282 283 283 283 283 283 283 283
295 295 295 296 295 294 296 297 297 297 296 294 285 285 286 291 294 293 293 290 289 283 286 288 284 281 283 282 287 285 284 283 282 282 282 282 282 282 282 282 282 282 282 282
295 295 295 296 295 295 297 297 294 295 287 288 289 291 293 296 295 292 291 290 291 283 287 288 281 280 281 287 287 286 284 283 282 282 282 282 282 282 282 282 282 282 282 281
296 296 296 297 297 295 294 296 298 297 292 297 298 298 297 296 297 298 297 286 282 284 287 287 283 280 280 288 288 286 286 284 283 282 282 282 283 283 282 282 282 282 282 282
296 296 296 296 295 295 296 297 297 297 297 298 299 299 299 299 297 298 298 294 283 284 289 280 281 281 285 288 288 286 286 286 284 283 282 281 281 282 282 282 282 282 281 281
296 296 297 297 296 297 297 297 296 297 297 297 299 299 300 300 300 297 297 292 294 288 289 290 286 286 287 287 287 286 286 286 285 284 282 282 281 281 281 281 281 281 281 280
297 292 296 296 297 297 297 297 296 296 297 299 297 300 299 301 300 297 293 295 293 291 291 290 289 285 286 287 286 286 286 286 283 284 283 282 282 281 280 280 281 281 280 280
Wind_Speed
14 19 24 26 27 28 27 20 13 16 15 21 21 22 21 23 22 20 19 19 18 17 15 15 16 16 16 15 16 16 18 17 18 13 18 17 18 17 16 16 17 15 13 13
10 11 23 22 20 23 23 21 16 14 12 20 19 18 19 21 21 20 19 18 18 17 17 16 17 15 16 16 16 16 18 18 18 17 14 16 16 16 16 17 17 18 19 18
3 8 6 10 19 11 14 12 11 11 13 19 21 20 17 19 20 18 19 18 18 17 17 15 15 14 15 16 16 16 15 16 17 15 14 14 15 16 16 16 15 17 17 17
3 5 7 8 10 11 9 14 16 14 16 17 18 18 11 17 19 19 19 19 18 16 16 16 15 14 14 14 13 14 13 14 12 13 13 12 11 14 14 13 15 14 16 18
3 10 3 14 11 10 7 9 14 14 14 12 15 11 10 17 19 17 17 15 14 16 16 15 14 14 13 12 12 12 11 12 13 11 9 8 12 10 10 10 10 11 13 16
6 6 8 8 13 19 10 6 15 6 10 10 12 11 11 19 16 17 18 15 16 18 15 13 15 15 12 12 12 12 13 12 10 9 9 9 10 9 9 9 12 8 6 6
7 5 4 7 14 13 9 6 15 8 7 5 6 3 10 13 14 11 13 14 15 15 14 15 15 14 13 13 15 14 13 12 11 10 9 6 7 8 7 9 7 9 10 11
7 6 5 8 7 5 2 8 9 11 11 7 4 5 5 9 9 7 12 12 12 16 14 13 15 15 16 18 16 14 12 12 12 11 10 10 6 6 8 6 7 8 8 8
4 2 3 7 6 9 5 6 8 9 12 12 12 11 4 5 6 8 9 9 8 11 14 13 13 15 16 16 16 15 15 14 13 12 13 14 14 13 10 12 10 7 7 8
4 3 5 5 6 6 6 7 9 10 11 13 14 13 12 11 12 10 12 13 12 14 16 16 18 17 16 16 17 16 17 16 13 14 14 12 11 10 12 11 9 9 9 10
8 5 9 9 7 7 6 8 10 11 13 13 14 16 15 13 13 13 11 12 12 12 14 16 15 17 17 16 17 18 16 16 15 12 14 12 11 9 10 11 11 8 9 7
3 4 5 6 6 8 9 8 9 10 12 13 13 14 16 13 13 13 14 15 14 15 16 16 17 17 17 18 18 16 13 13 12 11 10 10 10 8 9 8 13 20 21 17
4 1 6 4 4 7 7 8 6 9 10 12 14 12 14 13 13 13 14 15 16 15 15 15 16 19 19 16 17 18 14 10 10 12 11 11 11 11 11 10 14 22 25 25
4 4 5 4 5 6 6 8 7 9 10 10 12 12 13 12 12 14 14 14 15 15 16 16 16 17 18 16 15 15 15 14 11 11 11 10 10 11 9 11 12 13 17 20
2 1 2 4 5 7 6 6 8 9 10 11 11 11 12 13 13 12 14 15 15 14 15 16 16 16 17 16 13 13 12 12 11 9 9 11 10 10 10 10 10 10 11 16
4 2 3 6 6 7 7 7 8 9 9 10 10 10 11 12 11 11 12 13 12 14 15 15 14 14 15 16 14 10 9 12 11 11 11 11 10 11 10 10 10 10 11 12
4 3 2 5 6 6 8 7 8 8 8 8 8 10 11 12 12 11 12 12 11 10 11 12 13 13 13 15 13 9 9 10 15 10 11 11 10 11 10 10 10 9 9 11
3 4 1 1 3 4 5 6 6 7 6 6 7 8 9 10 10 11 10 10 10 10 11 11 11 11 11 13 12 10 9 9 10 10 10 10 10 10 10 10 10 9 9 10
8 5 3 2 1 3 3 3 5 6 5 5 6 7 7 6 6 8 9 5 6 8 8 9 8 10 12 10 10 9 9 10 10 9 10 11 10 10 10 10 8 9 9 9
9 8 5 5 4 3 4 4 3 5 4 5 6 6 7 6 1 4 6 6 6 4 7 7 10 10 10 11 9 8 9 10 9 8 8 9 8 8 8 9 9 9 8 8
11 9 8 7 7 5 4 4 2 6 4 2 4 3 4 8 9 4 4 4 5 6 7 5 8 7 7 8 6 7 7 8 8 6 6 6 7 8 8 8 8 8 8 8
10 10 9 9 8 8 8 9 8 5 4 2 3 1 4 8 6 5 4 2 4 3 5 5 5 6 7 11 5 5 6 6 6 5 6 6 6 7 7 7 7 7 8 8
9 10 10 9 9 9 8 7 4 6 5 6 6 7 7 6 4 3 4 4 1 4 4 4 3 5 8 5 4 4 5 5 5 4 4 5 5 6 5 6 6 6 6 6
9 9 9 8 8 8 9 8 8 10 9 9 9 7 7 5 5 4 3 5 6 5 3 1 2 2 6 4 3 3 3 4 4 4 5 5 4 5 5 5 5 6 6 6
9 9 9 9 9 8 9 9 8 8 8 9 9 8 9 7 6 5 3 3 7 5 2 7 6 4 4 4 2 1 3 1 1 2 3 4 5 4 4 5 5 5 5 5
9 7 7 10 8 7 7 7 7 7 7 6 6 5 5 5 5 4 4 4 4 7 5 4 5 5 4 4 1 3 3 3 1 2 0 3 4 4 3 4 4 5 4 4
9 8 7 7 7 8 8 8 7 5 4 4 5 4 5 5 6 6 6 6 5 5 5 5 5 5 5 5 3 4 3 4 2 2 1 1 3 4 4 4 3 3 4 4
Wind_Direction
108 91 63 43 33 32 38 27 28 12 27 359 353 349 359 2 355 348 341 337 330 326 323 321 319 316 314 308 300 297 288 280 263 225 209 215 216 214 217 216 221 221 222 208
132 114 74 50 49 50 33 19 17 17 14 355 354 350 14 1 355 348 341 337 332 328 328 323 313 316 312 306 299 299 293 290 290 227 213 209 218 217 215 218 217 222 222 216
81 23 74 40 13 32 42 33 3 22 358 349 354 351 15 354 351 345 345 343 341 337 331 320 316 318 311 305 296 287 286 284 281 233 214 217 209 219 219 221 221 220 222 221
53 275 45 345 360 339 358 20 13 9 8 358 346 344 359 355 348 346 344 343 344 339 329 326 324 319 311 304 309 306 302 307 324 325 217 213 213 215 219 222 226 219 219 224
63 65 85 21 348 316 350 20 10 1 360 350 336 329 346 355 347 342 341 338 338 336 328 324 331 328 321 326 329 325 325 322 318 326 329 294 214 213 216 219 232 226 228 226
54 52 33 351 324 317 141 34 356 21 351 330 340 355 346 339 339 335 339 340 340 335 327 334 343 334 341 344 339 339 330 328 322 334 335 330 320 220 218 218 216 197 222 229
72 94 81 341 325 333 51 322 307 13 331 339 9 267 283 313 332 332 330 338 344 338 349 345 341 344 359 355 354 339 344 338 355 351 329 312 310 318 228 223 235 225 217 219
21 56 63 6 338 32 273 291 358 4 354 359 278 262 234 276 298 345 330 351 360 345 353 348 351 357 5 7 346 350 2 6 6 8 14 6 343 328 304 251 224 226 228 236
43 118 241 241 212 236 232 11 6 9 352 6 356 2 211 280 298 346 343 344 19 359 351 6 4 6 4 2 358 1 17 14 17 15 34 31 34 26 28 13 345 260 227 232
192 172 259 84 44 7 29 20 9 10 6 13 2 1 10 8 9 5 3 9 2 8 9 14 10 13 8 2 4 12 23 17 16 25 27 31 47 40 40 23 10 11 0 346
67 91 213 49 38 352 31 23 356 14 12 14 13 10 2 16 13 1 15 11 9 21 9 12 15 11 15 11 10 19 18 19 16 22 29 27 40 37 48 39 33 23 11 347
94 31 55 48 30 9 21 18 359 20 12 13 20 9 5 17 13 7 8 12 14 18 15 12 16 12 6 18 22 18 20 17 12 19 23 27 23 23 49 42 30 31 26 26
96 280 55 39 43 33 20 2 7 31 26 17 15 18 9 11 18 14 7 11 15 17 15 9 19 12 5 15 20 18 16 25 22 25 24 24 21 22 19 13 28 28 20 14
70 7 46 23 31 45 31 3 16 35 31 29 21 12 15 9 19 15 15 10 16 14 17 10 16 22 1 359 23 24 14 10 32 25 24 20 23 21 22 20 14 5 11 7
135 174 51 25 38 51 40 27 7 20 22 22 18 12 14 13 20 20 14 11 17 16 20 15 8 21 6 353 18 20 32 15 16 27 23 25 23 24 21 23 22 16 10 14
157 329 58 48 42 40 36 24 11 11 17 18 10 4 16 18 24 17 25 15 21 16 14 13 5 15 19 353 4 21 23 33 23 23 21 16 23 23 20 19 22 23 21 11
194 159 46 34 39 31 30 18 11 12 13 9 354 359 14 11 15 14 17 24 18 27 20 14 3 8 24 359 2 11 25 29 23 18 21 18 19 19 19 17 17 20 24 12
186 146 170 50 17 25 16 10 6 9 17 356 349 359 9 15 11 0 354 30 16 19 9 14 2 3 23 9 4 4 26 29 34 22 21 15 19 21 15 14 18 18 14 15
195 205 194 219 357 342 312 358 7 353 13 4 350 351 15 10 18 348 327 65 30 12 350 14 355 8 19 23 7 6 25 39 28 22 22 21 24 22 21 23 16 16 15 16
207 210 214 229 238 251 300 310 19 335 353 358 343 357 357 337 57 308 346 27 57 13 323 28 16 6 27 8 35 13 19 36 25 20 15 15 15 16 16 19 16 17 18 22
210 220 223 219 233 240 245 294 210 263 312 322 328 26 309 314 299 291 355 349 42 358 333 36 27 9 7 2 23 15 25 26 24 18 14 5 2 6 11 15 19 16 15 19
211 220 227 226 219 231 233 233 243 251 249 41 126 259 287 284 309 338 341 111 107 1 312 63 31 359 332 326 41 19 32 24 12 12 1 3 6 4 8 8 16 22 16 14
215 223 231 232 228 241 252 254 212 171 194 207 224 235 240 267 291 282 295 154 59 93 308 76 62 341 328 310 24 30 14 19 13 3 1 351 360 357 9 7 11 15 21 20
222 226 232 232 234 238 245 248 232 227 198 221 233 243 259 275 289 298 264 132 132 161 248 152 143 314 317 314 359 8 3 9 14 4 359 354 354 358 359 3 13 12 17 25
227 234 236 233 235 240 246 252 252 248 247 219 226 225 224 222 226 254 263 110 159 201 247 159 196 207 265 290 306 325 314 358 12 319 359 351 350 353 356 358 359 4 16 21
226 230 233 234 231 236 242 247 247 234 228 233 229 219 215 212 213 207 223 231 228 193 209 176 197 195 240 270 296 288 281 292 253 310 318 337 330 332 341 347 355 349 1 8
228 232 238 238 235 235 231 229 250 264 247 236 237 234 230 214 209 210 207 209 197 205 214 207 195 195 214 237 246 258 252 264 224 237 255 260 293 303 312 320 327 324 333 336